White Mountain, AK

7:45 PM AKDT on July 25, 2017 (GMT -0800)
White Mountain

Weather History for PAWM - January, 2013

Change the Weather History Date:

Tuesday, January 15, 2013

  Actual Average (PAOM) Record (PAOM)
Temperature  
Mean Temperature 5 °F -  
Max Temperature 10 °F 13 °F 37 °F (1997)
Min Temperature 0 °F -1 °F -37 °F (1991)
Degree Days  
Heating Degree Days 60    
Moisture  
Dew Point 3 °F    
Average Humidity 88    
Maximum Humidity 95    
Minimum Humidity 78    
Precipitation  
Precipitation 0.00 in - - ()
Sea Level Pressure  
Sea Level Pressure 29.96 in    
Wind  
Wind Speed 11 mph (SW)    
Max Wind Speed 17 mph    
Max Gust Speed 24 mph    
Visibility 3 miles    
Events Snow    
Averages and records for this station are not official NWS values.
T = Trace of Precipitation, MM = Missing Value Source: NWS Daily Summary

Daily Weather History Graph

Daily Weather History Graph

Search for Another Location

Airport or City:

Trip Planner

Search our weather history database for the weather conditions in past years. The results will help you decide how hot, cold, wet, or windy it might be!

Date:

Astronomy

Jan. 15, 2013 Rise Set
Actual Time 11:26 AM AKST 4:41 PM AKST
Civil Twilight 10:16 AM AKST 5:50 PM AKST
Nautical Twilight 9:10 AM AKST 6:56 PM AKST
Astronomical Twilight 8:11 AM AKST 7:55 PM AKST
Moon 11:26 AM AKST (1/15) No Moon Set
Length of Visible Light 7h 34m
Length of Day
5h 14m
Waxing Crescent, 20% of the Moon is Illuminated
Jan 15
Waxing Crescent
Jan 18
First Quarter
Jan 26
Full
Feb 3
Last Quarter
Feb 9
New

Hourly Weather History & Observations

Time (AKST) Temp. Windchill Dew Point Humidity Pressure Visibility Wind Dir Wind Speed Gust Speed Precip Events Conditions
12:11 AM 10.4 °F -6.6 °F 8.6 °F 92% 29.77 in 2.5 mi SSW 16.1 mph 20.7 mph 0.00 in Snow Light Snow
12:19 AM 10.4 °F -6.6 °F 6.8 °F 85% 29.77 in 4.0 mi SSW 16.1 mph 23.0 mph 0.00 in Snow Light Snow
12:58 AM 10.0 °F -6.5 °F 6.1 °F 84% 29.82 in 4.0 mi SW 15.0 mph 24.2 mph 0.00 in Snow Light Snow
1:08 AM 10.4 °F -7.2 °F 6.8 °F 85% 29.79 in 3.0 mi SW 17.3 mph 24.2 mph 0.00 in Snow Light Snow
1:58 AM 9.0 °F -5.1 °F 6.1 °F 88% 29.84 in 3.0 mi SW 10.4 mph - 0.00 in Snow Light Snow
3:22 AM 8.6 °F -2.6 °F 6.8 °F 92% 29.83 in 3.0 mi SW 6.9 mph - 0.00 in Snow Light Snow
3:58 AM 8.1 °F -4.3 °F 7.0 °F 95% 29.87 in 2.0 mi SSW 8.1 mph - 0.00 in Snow Light Snow
4:10 AM 8.6 °F -4.7 °F 6.8 °F 92% 29.84 in 2.5 mi SSW 9.2 mph - 0.00 in Snow Light Snow
4:14 AM 8.6 °F -4.7 °F 6.8 °F 92% 29.84 in 2.5 mi SSW 9.2 mph - 0.00 in Snow Light Snow
4:28 AM 8.6 °F -4.7 °F 6.8 °F 92% 29.84 in 3.0 mi SSW 9.2 mph - 0.00 in Snow Light Snow
4:46 AM 8.6 °F -6.3 °F 6.8 °F 92% 29.85 in 2.0 mi SW 11.5 mph - 0.00 in Snow Light Snow
4:51 AM 8.6 °F -6.3 °F 6.8 °F 92% 29.85 in 1.8 mi SW 11.5 mph - 0.00 in Snow Light Snow
4:58 AM 9.0 °F -6.6 °F 7.0 °F 92% 29.89 in 2.5 mi SW 12.7 mph - 0.00 in Snow Light Snow
5:02 AM 8.6 °F -7.7 °F 6.8 °F 92% 29.85 in 3.0 mi SW 13.8 mph - 0.00 in Snow Light Snow
5:54 AM 8.6 °F -6.3 °F 6.8 °F 92% 29.88 in 2.0 mi SSW 11.5 mph 19.6 mph 0.00 in Snow Light Snow
5:58 AM 8.1 °F -7.0 °F 6.1 °F 92% 29.92 in 1.8 mi SSW 11.5 mph 19.6 mph 0.00 in Snow Light Snow
6:34 AM 8.6 °F -7.7 °F 6.8 °F 92% 29.89 in 1.2 mi SSW 13.8 mph - 0.00 in Snow Light Snow
6:38 AM 8.6 °F -7.7 °F 6.8 °F 92% 29.89 in 1.5 mi SSW 13.8 mph - 0.00 in Snow Light Snow
6:56 AM 8.6 °F -7.0 °F 6.8 °F 92% 29.89 in 1.5 mi SSW 12.7 mph 20.7 mph 0.00 in Snow Light Snow
6:58 AM 8.1 °F -7.0 °F 6.1 °F 92% 29.93 in 1.5 mi SSW 11.5 mph 20.7 mph 0.00 in Snow Light Snow
7:11 AM 8.6 °F -7.0 °F 6.8 °F 92% 29.90 in 2.5 mi SSW 12.7 mph 18.4 mph 0.00 in Snow Light Snow
7:18 AM 8.6 °F -6.3 °F 6.8 °F 92% 29.91 in 3.0 mi SSW 11.5 mph - 0.00 in Snow Light Snow
7:23 AM 8.6 °F -5.5 °F 6.8 °F 92% 29.91 in 3.0 mi SSW 10.4 mph - 0.00 in Snow Light Snow
7:48 AM 8.6 °F -6.3 °F 6.8 °F 92% 29.91 in 2.5 mi SSW 11.5 mph - 0.00 in Snow Light Snow
7:53 AM 8.6 °F -6.3 °F 6.8 °F 92% 29.91 in 2.0 mi SSW 11.5 mph 17.3 mph 0.00 in Snow Light Snow
7:58 AM 8.1 °F -7.0 °F 6.1 °F 92% 29.95 in 1.8 mi SSW 11.5 mph 17.3 mph 0.00 in Snow Light Snow
8:03 AM 8.6 °F -6.3 °F 6.8 °F 92% 29.91 in 2.0 mi SSW 11.5 mph - 0.00 in Snow Light Snow
8:24 AM 8.6 °F -5.5 °F 6.8 °F 92% 29.92 in 2.5 mi SSW 10.4 mph - 0.00 in Snow Light Snow
8:28 AM 8.6 °F -5.5 °F 6.8 °F 92% 29.92 in 3.0 mi SSW 10.4 mph - 0.00 in Snow Light Snow
8:40 AM 8.6 °F -7.0 °F 6.8 °F 92% 29.92 in 2.5 mi SSW 12.7 mph - 0.00 in Snow Light Snow
8:54 AM 8.6 °F -6.3 °F 6.8 °F 92% 29.93 in 1.8 mi SSW 11.5 mph - 0.00 in Snow Light Snow
8:58 AM 8.1 °F -6.2 °F 6.1 °F 92% 29.96 in 2.0 mi SSW 10.4 mph - 0.00 in Snow Light Snow
9:05 AM 8.6 °F -6.3 °F 5.0 °F 85% 29.93 in 2.5 mi SSW 11.5 mph - 0.00 in Snow Light Snow
9:12 AM 8.6 °F -4.7 °F 5.0 °F 85% 29.93 in 3.0 mi SSW 9.2 mph - 0.00 in Snow Light Snow
9:21 AM 6.8 °F -4.8 °F 5.0 °F 92% 29.93 in 4.0 mi SSW 6.9 mph - 0.00 in Snow Light Snow
9:58 AM 7.0 °F -8.3 °F 5.0 °F 92% 29.97 in 2.5 mi SW 11.5 mph - 0.00 in Snow Light Snow
10:04 AM 6.8 °F -6.9 °F 5.0 °F 92% 29.94 in 3.0 mi SW 9.2 mph - 0.00 in Snow Light Snow
10:58 AM 7.0 °F -7.5 °F 3.9 °F 87% 29.99 in 5.0 mi SSW 10.4 mph - 0.00 in Snow Light Snow
11:58 AM 5.0 °F -10.8 °F 1.9 °F 87% 30.01 in 6.0 mi SW 11.5 mph - 0.00 in   Overcast
12:03 PM 5.0 °F -10.0 °F 1.4 °F 85% 29.97 in 7.0 mi SW 10.4 mph - N/A   Overcast
12:58 PM 5.0 °F -10.8 °F -0.0 °F 80% 30.04 in 2.0 mi West 11.5 mph - 0.00 in Snow Light Snow
1:03 PM 3.2 °F -11.3 °F -0.4 °F 85% 30.00 in 1.5 mi WSW 9.2 mph - 0.00 in Snow Light Snow
1:10 PM 3.2 °F -13.1 °F -0.4 °F 85% 30.00 in 2.5 mi WSW 11.5 mph - 0.00 in Snow Light Snow
1:14 PM 3.2 °F -11.3 °F -0.4 °F 85% 30.00 in 3.0 mi WSW 9.2 mph - 0.00 in Snow Light Snow
2:58 PM 1.9 °F -14.7 °F -2.9 °F 80% 30.07 in 3.0 mi West 11.5 mph - 0.00 in Snow Light Snow
3:09 PM 1.4 °F -15.3 °F -2.2 °F 85% 30.04 in 3.0 mi WSW 11.5 mph - 0.00 in Snow Light Snow
3:33 PM 1.4 °F -12.5 °F -2.2 °F 85% 30.05 in 2.5 mi WSW 8.1 mph - 0.00 in Snow Light Snow
3:46 PM 1.4 °F -13.5 °F -2.2 °F 85% 30.06 in 4.0 mi WSW 9.2 mph - 0.00 in Snow Light Snow
3:58 PM 1.0 °F -11.7 °F -2.9 °F 83% 30.10 in 4.0 mi WSW 6.9 mph - 0.00 in Snow Light Snow
4:58 PM 1.0 °F -10.3 °F -2.9 °F 83% 30.12 in 3.0 mi WSW 5.8 mph - 0.00 in Snow Light Snow
5:58 PM -0.0 °F -14.2 °F -5.1 °F 79% 30.12 in 6.0 mi WSW 8.1 mph - 0.00 in Snow Light Snow
6:58 PM -0.0 °F -11.6 °F -5.1 °F 79% 30.14 in 7.0 mi WSW 5.8 mph - 0.00 in   Overcast
7:44 PM -0.4 °F -12.0 °F -5.8 °F 78% 30.11 in 7.0 mi SW 5.8 mph - N/A   Overcast
7:58 PM -0.0 °F -7.9 °F -5.1 °F 79% 30.16 in 7.0 mi SSW 3.5 mph - N/A   Overcast
8:58 PM -0.0 °F - -4.0 °F 83% 30.16 in 5.0 mi Calm Calm - 0.00 in Snow Light Snow
9:58 PM -0.0 °F - -2.9 °F 88% 30.17 in 7.0 mi Calm Calm - 0.00 in   Overcast
10:40 PM 1.4 °F - -2.2 °F 85% 30.15 in 5.0 mi Calm Calm - 0.00 in Snow Light Snow
10:58 PM 1.0 °F - -2.9 °F 83% 30.19 in 5.0 mi Calm Calm - 0.00 in Snow Light Snow
11:58 PM 1.0 °F -6.7 °F -2.9 °F 83% 30.20 in 7.0 mi ENE 3.5 mph - 0.00 in   Overcast